Location: Ferchesar
(52.6477°N, 12.4298°E)
Time: 05:59:25
(UTC+01:00)

Vanguard 2 Rocket - Pass Details

Date: 05 December 2021
Orbit: 553 x 3325 km, 32.9° (Epoch: 25 January)

Event Time Altitude Azimuth Distance (km) Brightness Sun altitude
Rises 19:54:52 0° 236° (SW) 3,712 10.6 -34.8°
Reaches altitude 10° 19:57:49 10° 220° (SW) 3,093 9.9 -35.2°
Enters shadow 20:02:19 21° 183° (S) 2,851 9.3 -35.9°
Maximum altitude 20:03:27 21° 174° (S) 2,943 - -36.1°
Drops below altitude 10° 20:11:30 10° 131° (SE) 4,609 - -37.3°
Sets 20:17:18 0° 119° (ESE) 6,157 - -38.1°
